Location: Staunton
(38.1490°N, 79.0720°W)
Time: 15:10:54
(UTC-04:00)

N. Korean satellite - Pass Details

Date: 25 September 2021
Orbit: 450 x 495 km, 97.3° (Epoch: 16 October)

Event Time Altitude Azimuth Distance (km) Brightness Sun altitude
Rises 05:49:23 0° 26° (NNE) 2,529 10.8 -16.0°
Reaches altitude 10° 05:51:45 10° 42° (NE) 1,655 10.1 -15.5°
Maximum altitude 05:54:37 23° 96° (E) 1,075 9.2 -15.0°
Drops below altitude 10° 05:57:30 10° 150° (SSE) 1,664 9.5 -14.4°
Sets 05:59:53 0° 165° (SSE) 2,547 10.3 -13.9°
